Погода в Чанах

Россия / Новосибирская область     55°18′33″N   76°45′40″E
темп.,
°C
ветер,
м/с
пор.,
м/с
влажн.,
%
обл.,
%
осадки,
мм/ч
давл.,
гПа
погр.,
м
26 февраля, пт
пт2601:00−29зюз449959 0.0 102064
04:00−28з489996 0.0 1022143
07:00−31з489898 0.1 1026148
10:00−33з369727 0.0 102889
13:00−28з469414 0.0 1030287
16:00−26зюз469271 0.0 1031405
19:00−28зюз349675 0.0 103244
22:00−29юз349766 0.0 103465
27 февраля, сб
сб2701:00−30юз349876 0.0 103449
04:00−30юз339796 0.0 103477
07:00−32юз339875 0.0 103520
10:00−32ююз339715 0.0 103549
13:00−27ююз34938 0.0 1036229
16:00−25ю359381 0.0 1035309
19:00−28ю349661 0.0 103537
22:00−30ю349712 0.0 103551
28 февраля, вс
вс2801:00−30ююв349838 0.0 103454
04:00−30юв459946 0.0 103381
07:00−28юв499965 0.0 1031136
10:00−23юв61096100 0.0 1028256
13:00−19юв61092100 0.0 1026321
16:00−16вюв71192100 0.1 1023421
19:00−14вюв71393100 0.4 1020559
22:00−13вюв61293100 0.3 1016418
1 марта, пн
пн101:00−11в61294100 0.5 1012376
04:00−9в61095100 0.6 1010322
07:00−9всв5895100 0.8 1009253
10:00−8всв4695100 0.4 1008240
13:00−6в3595100 1.0 1008263
16:00−3в3397100 0.8 1008196
19:00−4св3397100 2.1 1007118
22:00−7сз2297100 0.7 100821
2 марта, вт
вт201:00−11зсз349794 0.7 101050
04:00−14з479799 0.1 1011126
07:00−17з489898 0.1 1013145
10:00−18з489798 0.0 1014177
13:00−15з469499 0.1 1016289
16:00−14з5791100 0.0 1016457
19:00−17з3696100 0.0 101687
22:00−20зюз349975 0.0 101751